METEOR 2-8 DEB

Satellite information

Favourite Embed

Satellite Type and Status

DEBRISIN ORBIT

Key statistics

Satellite METEOR 2-8 DEB at a glance.

Uptime

15917

Days in orbit

Revolutions

≈ 14.2

Per day

Orbit

LEO

Low Earth Orbit

Inclination

82.5

Latest

Satellite identification and parameters

Extended collection of information and parameters for METEOR 2-8 DEB.

Object identification

Identified? True

Debris? True

Object name: METEOR 2-8 DEB

International designator: 1982-025AC

Object number (NORAD): 36342

Object ID (CCSDS): 36342

Country: COMMONWEALTH OF INDEPENDENT STATES (CIS)

Current information (Y/N): Y

RCS size: SMALL

Orbital parameters

Period: 101.659 minutes

Inclination: 82.531 deg

SMA: 7215.341 km

Apoapsis: 856.946 km

Periapsis: 817.467 km

RAAN: 105.173 deg

Eccentricy: 0.00273575

Argument of periapsis: 239.1745 deg

Mean anomaly: 120.6741 deg

Mean motion: 14.16502853 rev/day

Mean motion (dot): 0.00005333 rev/day2

B* drag term: 0.0026620193 1/REarth

Two-line elements (TLE)

Creation date: Oct. 18, 2025, 2:17 a.m.

Reference frame: TEME

Reference center: EARTH

Epoch: Oct. 17, 2025, 6:02 p.m. UTC

TLE line 0: 0 METEOR 2-8 DEB

TLE line 1: 1 36342U 82025AC 25290.75139983 .00005333 00000-0 26620-2 0 9990

TLE line 2: 2 36342 82.5310 105.1730 0027357 239.1745 120.6741 14.16502853632132

Live tracking on map

Real-time ground track for satellite METEOR 2-8 DEB.

In-orbit conjunctions

A list of the most updated potential collisions computed for object METEOR 2-8 DEB.

Target Orbit TCA Probability of collision Miss distance Type
CZ-6A DEB SSO 2025-10-06 20:27:37 0.0001161079 118.0 (m) DEBRIS
FENGYUN 1C DEB SSO 2025-04-01 11:55:58 0.0001084475 101.0 (m) DEBRIS
FENGYUN 1C DEB SSO 2025-03-18 14:41:06 0.0001380286 25.0 (m) DEBRIS

Associated space launch

Second generation soviet meteorological satellite

METEOR 2-8 DEB was lifted into orbit during the mission ‘Tsiklon-3 | Meteor-2 8’, on board a Tsiklon-3 space rocket.

The launch took place on March 25, 1982, 9:50 a.m. from 32/1.

For more information about the launch, click the button.

Launch to space Tsiklon-3 | Meteor-2 8
Tsiklon-3 | Meteor-2 8

Agency: N/A

Status: Launch Successful

Launch date: March 25, 1982, 9:50 a.m. UTC

Rocket: Tsiklon-3

Launch pad: 32/1

Location: Plesetsk Cosmodrome, Russian Federation

...

Latest news about this satellite

There are no fresh news available about this satellite. Check back as we update our databases every day.


Newsletter sign-up

Weekly statistics, charts and insights to help you stay on top of the space industry.